GW2845 Weather Reports


time (UTC)temp
C
wind
direction
speed
KPH
gust
KPH
rain 1hr
cm
rain 24hr
cm
rain mn
cm
humidity
%
barometer
mb
20260507124105 11 340 3.2 8.0 0.00 0.00 0.00 73 1014.9
20260507123101 11 1 1.6 3.2 0.00 0.00 0.00 73 1014.9
20260507122035 11 322 4.8 11.3 0.00 0.00 0.00 73 1014.8
20260507121123 11 334 4.8 9.7 0.00 0.00 0.00 74 1014.8
20260507120026 11 296 3.2 8.0 0.00 0.00 0.00 74 1014.8
20260507115113 11 299 1.6 8.0 0.00 0.00 0.00 75 1014.7
20260507114020 11 338 3.2 8.0 0.00 0.03 0.00 76 1014.6
20260507113107 11 315 4.8 9.7 0.00 0.03 0.00 76 1014.5
20260507112039 11 4 3.2 11.3 0.00 0.03 0.00 76 1014.5
20260507111030 11 347 1.6 4.8 0.00 0.03 0.00 77 1014.6
20260507110103 11 350 4.8 9.7 0.00 0.05 0.00 77 1014.6
20260507105047 11 354 3.2 9.7 0.00 0.05 0.00 76 1014.6
20260507104054 11 321 4.8 9.7 0.00 0.08 0.00 77 1014.6
20260507103111 10 357 4.8 11.3 0.00 0.08 0.00 79 1014.6
20260507102054 11 334 6.4 11.3 0.00 0.10 0.00 80 1014.5
20260507101042 10 349 4.8 9.7 0.00 0.10 0.00 81 1014.6
20260507100048 10 333 3.2 8.0 0.00 0.13 0.00 84 1014.3
20260507095128 10 352 1.6 8.0 0.00 0.13 0.00 84 1014.4
20260507094024 10 281 1.6 4.8 0.00 0.13 0.00 85 1014.2
20260507093107 9 315 6.4 9.7 0.00 0.15 0.00 86 1014.2
20260507092115 10 324 1.6 8.0 0.00 0.18 0.00 85 1014.1
20260507091029 10 321 0.0 1.6 0.00 0.20 0.00 86 1014.1
20260507090037 8 293 1.6 8.0 0.00 0.23 0.00 88 1014.1
20260507085023 8 318 1.6 4.8 0.00 0.28 0.00 89 1014.1
20260507083607 8 0.0 0.0 0.00 0.30 0.00 88 1013.6
20260507082618 8 299 0.0 3.2 0.00 0.33 0.00 88 1013.5
20260507081620 8 276 0.0 1.6 0.00 0.36 0.00 89 1013.5
20260507080555 8 298 0.0 3.2 0.00 0.38 0.00 89 1013.4
20260507075543 8 286 0.0 3.2 0.00 0.41 0.00 89 1013.1
20260507074621 8 345 1.6 3.2 0.00 0.43 0.00 89 1013.1
20260507073555 8 249 1.6 8.0 0.00 0.46 0.00 90 1013.2
20260507072534 8 330 1.6 8.0 0.00 0.48 0.00 90 1013.2
20260507071621 8 329 1.6 4.8 0.00 0.53 0.00 91 1013.1
20260507070557 8 307 1.6 4.8 0.00 0.56 0.00 91 1013.1
20260507065632 8 332 0.0 3.2 0.00 0.58 0.00 91 1012.9
20260507064607 8 290 1.6 3.2 0.00 0.61 0.00 91 1012.9
20260507063536 8 0.0 0.0 0.00 0.64 0.00 91 1012.7
20260507062616 8 0.0 0.0 0.00 0.66 0.00 90 1012.6
20260507061620 8 303 0.0 1.6 0.00 0.69 0.00 91 1012.5
20260507060627 8 0.0 0.0 0.00 0.74 0.00 90 1012.2
20260507055611 7 292 0.0 1.6 0.00 0.76 0.00 91 1012.3
20260507054558 7 331 0.0 4.8 0.00 0.79 0.00 91 1012.0
20260507053551 7 304 0.0 3.2 0.00 0.81 0.00 91 1012.0
20260507052620 7 323 0.0 1.6 0.00 0.84 0.00 91 1011.9
20260507051620 7 295 1.6 4.8 0.00 0.84 0.00 91 1011.9
20260507050533 7 274 0.0 1.6 0.00 0.84 0.00 91 1011.8
20260507045621 7 298 1.6 4.8 0.00 0.84 0.00 91 1011.6
20260507044606 7 296 1.6 3.2 0.00 0.84 0.00 91 1011.6
20260507043554 7 325 1.6 4.8 0.00 0.86 0.00 91 1011.4
20260507042722 7 338 0.0 1.6 0.00 0.86 0.00 91 1011.6
20260507041714 7 329 1.6 8.0 0.00 0.89 0.00 92 1011.3
20260507040557 7 314 1.6 4.8 0.00 0.91 0.00 92 1011.1
20260507035552 7 323 3.2 8.0 0.00 0.91 0.00 93 1011.1
20260507034639 7 297 0.0 3.2 0.00 0.94 0.00 93 1010.9
20260507033613 7 335 3.2 9.7 0.00 0.97 0.00 94 1010.9
20260507032629 7 276 0.0 4.8 0.00 0.99 0.00 95 1011.1
20260507031636 7 0.0 0.0 0.00 0.99 0.00 95 1010.9
20260507030640 7 320 0.0 3.2 0.00 1.02 0.00 95 1010.9
20260507025613 7 259 0.0 1.6 0.00 1.04 0.00 94 1010.8
20260507024647 7 0.0 0.0 0.00 1.04 0.00 94 1010.8
20260507023607 7 282 1.6 4.8 0.00 1.04 0.00 94 1010.7
20260507022645 7 324 3.2 8.0 0.00 1.04 0.00 94 1010.5
20260507021608 7 259 1.6 3.2 0.00 1.04 0.00 94 1010.6
20260507020645 7 284 1.6 3.2 0.00 1.04 0.00 94 1010.6
20260507015540 7 298 1.6 4.8 0.00 1.04 0.00 94 1010.7
20260507014630 7 14 1.6 8.0 0.00 1.04 0.00 94 1010.7
20260507013630 7 280 1.6 4.8 0.00 1.04 0.00 94 1010.5
20260507012637 7 10 1.6 8.0 0.00 1.04 0.00 94 1010.3
20260507011652 7 298 3.2 4.8 0.00 1.04 0.00 95 1010.4
20260507010611 7 321 1.6 4.8 0.00 1.04 0.00 95 1010.3
20260507005619 7 290 1.6 8.0 0.00 1.04 0.00 95 1010.0
20260507004700 7 334 1.6 4.8 0.00 1.04 0.00 95 1010.0
20260507003627 7 297 1.6 4.8 0.00 1.04 0.00 95 1010.0
20260507002607 7 306 1.6 4.8 0.00 1.04 0.00 94 1009.8
20260507001707 7 282 3.2 9.7 0.00 1.04 0.00 95 1009.6
20260507000637 7 302 1.6 8.0 0.00 1.04 0.00 96 1009.6
20260506235553 7 311 3.2 8.0 0.00 1.04 0.00 95 1009.7
20260506234639 8 292 0.0 3.2 0.00 1.04 0.00 96 1009.7
20260506233629 8 0.0 0.0 0.00 1.04 0.00 95 1009.7
20260506232552 8 284 0.0 1.6 0.00 1.04 0.00 95 1009.6
20260506231718 8 317 0.0 1.6 0.00 1.04 0.00 94 1009.6
20260506230647 8 299 1.6 4.8 0.00 1.04 0.00 94 1009.5
20260506225645 8 302 1.6 3.2 0.00 1.04 0.00 95 1009.3
20260506224641 8 354 3.2 4.8 0.00 1.04 0.00 95 1009.4
20260506223550 8 346 3.2 9.7 0.00 1.04 0.00 96 1009.3
20260506222718 8 311 1.6 8.0 0.00 1.04 0.00 96 1009.1
20260506221620 8 352 1.6 4.8 0.00 1.04 0.00 97 1009.1
20260506220630 8 291 0.0 4.8 0.00 1.04 0.00 97 1009.1
20260506215733 8 303 1.6 3.2 0.00 1.04 1.04 97 1009.3
20260506214554 9 308 1.6 3.2 0.00 1.04 1.04 97 1009.2
20260506213627 9 270 3.2 9.7 0.00 1.04 1.04 96 1008.9
20260506212612 9 312 1.6 3.2 0.00 1.04 1.04 96 1008.8
20260506211545 9 360 0.0 1.6 0.00 1.04 1.04 96 1008.9
20260506210646 9 257 1.6 3.2 0.00 1.04 1.04 96 1008.9
20260506205604 9 286 3.2 9.7 0.00 1.04 1.04 96 1008.8
20260506204556 9 328 3.2 11.3 0.00 1.04 1.04 97 1008.8
20260506203637 9 286 1.6 4.8 0.00 1.04 1.04 97 1008.7
20260506202610 9 281 1.6 4.8 0.00 1.04 1.04 97 1008.8
20260506201600 9 299 0.0 3.2 0.00 1.04 1.04 97 1008.8
20260506200649 9 293 1.6 4.8 0.00 1.04 1.04 97 1008.8
20260506195647 9 283 0.0 1.6 0.00 1.04 1.04 97 1008.6
20260506194631 9 263 1.6 3.2 0.00 1.04 1.04 97 1008.3
20260506193653 9 316 1.6 3.2 0.00 1.04 1.04 97 1008.3
20260506192615 10 333 3.2 8.0 0.00 1.04 1.04 97 1008.2
20260506191641 10 326 3.2 8.0 0.00 1.04 1.04 96 1008.1
20260506190606 10 291 4.8 9.7 0.00 1.04 1.04 96 1007.9
20260506185603 10 290 1.6 3.2 0.00 1.04 1.04 97 1007.8
20260506184729 10 314 4.8 11.3 0.00 1.04 1.04 96 1007.6
20260506183641 10 330 3.2 4.8 0.00 1.04 1.04 97 1007.5
20260506182633 10 324 3.2 9.7 0.00 1.04 1.04 97 1007.4
20260506181731 10 336 4.8 11.3 0.00 1.04 1.04 96 1007.4
20260506180649 10 2 4.8 9.7 0.00 1.04 1.04 96 1007.4
20260506175612 10 342 4.8 9.7 0.00 1.04 1.04 96 1007.4
20260506174607 11 307 3.2 8.0 0.00 1.04 1.04 95 1007.4
20260506173713 11 298 1.6 8.0 0.00 1.04 1.04 95 1007.4
20260506172608 11 332 1.6 9.7 0.00 1.04 1.04 95 1007.1
20260506171652 11 336 0.0 3.2 0.00 1.04 1.04 95 1007.1
20260506170621 11 317 3.2 8.0 0.00 1.04 1.04 95 1006.9
20260506165619 11 277 3.2 4.8 0.00 1.04 1.04 95 1006.8
20260506164629 11 329 3.2 8.0 0.00 1.04 1.04 95 1006.9
20260506163609 11 276 1.6 3.2 0.00 1.04 1.04 94 1007.0
20260506162615 11 296 1.6 8.0 0.00 1.04 1.04 93 1006.8
20260506161650 12 180 1.6 4.8 0.00 1.04 1.04 93 1006.6
20260506160606 11 305 1.6 4.8 0.00 1.04 1.04 94 1007.0
20260506155628 12 324 1.6 3.2 0.00 1.04 1.04 94 1006.9
20260506154619 11 338 3.2 8.0 0.00 1.04 1.04 93 1007.0
20260506153723 12 342 6.4 9.7 0.00 1.04 1.04 93 1006.9
20260506152558 12 320 3.2 8.0 0.00 1.04 1.04 93 1006.8
20260506151703 12 338 1.6 8.0 0.00 1.04 1.04 93 1006.9
20260506150622 12 285 3.2 9.7 0.00 1.04 1.04 93 1006.8
20260506145710 12 338 3.2 8.0 0.00 1.04 1.04 93 1006.9
20260506144656 12 353 4.8 9.7 0.00 1.04 1.04 94 1006.8
20260506143545 12 336 1.6 4.8 0.00 1.04 1.04 95 1006.8
20260506142625 12 282 1.6 4.8 0.00 1.04 1.04 95 1006.9
20260506141538 12 333 3.2 8.0 0.00 1.04 1.04 95 1006.9
20260506140614 12 332 4.8 9.7 0.00 1.04 1.04 96 1006.9
20260506135626 12 307 3.2 9.7 0.00 1.04 1.04 97 1006.7
20260506134619 12 319 1.6 4.8 0.00 1.04 1.04 98 1006.7
20260506133605 12 358 1.6 3.2 0.00 1.04 1.04 99 1007.0
20260506132651 12 309 1.6 8.0 0.00 1.04 1.04 99 1006.7
20260506131638 11 37 0.0 3.2 0.00 1.04 1.04 99 1006.8
20260506130550 11 318 1.6 4.8 0.00 1.04 1.04 99 1006.6
20260506125630 11 270 1.6 4.8 0.00 1.04 1.04 99 1006.9
20260506124612 11 288 1.6 8.0 0.00 1.04 1.04 99 1006.9